Home > Weather > Chandpur > Past weeks

Flag for Bangladesh Weather for the Past 2 Weeks in Chandpur, Bangladesh

Now
99 °F

Haze.


Feels Like: 96 °F
Forecast: 78 / 91 °F
Wind: 5 mph from East

Location: Lucknow / Amausi

Current Time: May 2, 2016 at 12:02:15 PM

Latest Report: May 2, 2016 at 11:00 AM


Visibility: 2 mi

Pressure: 29.65 "Hg

Humidity: 21%

Dew Point: 52 °F

Location of ChandpurLocation

Historic Weather in Chandpur — Graph

°F

Chandpur Temperature Yesterday

Maximum temperature yesterday: 111 °F (at 4:00 PM)
Minimum temperature yesterday: 72 °F (at 4:30 AM)
Average temperature yesterday: 92 °F

High & Low Weather Summary for the Past Weeks

 TemperatureHumidityPressure
High113 °F (Apr 30, 1:30 PM)79% (Apr 18, 7:00 AM)29.77 "Hg (Apr 18, 7:00 AM)
Low72 °F (Apr 25, 6:30 AM)7% (Apr 29, 4:00 PM)29.45 "Hg (Apr 23, 4:30 AM)
Average95 °F22%29.63 "Hg
* Reported Apr 17 10:00 AM — May 2 10:30 AM, Chandpur, Weather by CustomWeather, © 2016

Note: Actual official high and low records may vary slightly from our data, if they occured in-between our weather recording intervals... More about our weather records

Advertising

Chandpur Weather History for the Previous 24 Hours

Scroll right to see more
 ConditionsComfort  
Time TempWeatherWind HumidityBarometerVisibility
10:30 AM
Mon, May 2
97 °FHaze.5 mph25%29.68 "Hg2 mi
10:00 AM95 °FHaze.5 mph25%29.68 "Hg2 mi
9:30 AM93 °FHaze.5 mph26%29.65 "Hg2 mi
9:00 AM93 °FHaze.3 mph24%29.65 "Hg2 mi
8:00 AM86 °FScattered clouds.3 mph25%29.62 "Hg2 mi
7:30 AM84 °FScattered clouds.5 mph27%29.62 "Hg2 mi
7:00 AM77 °FScattered clouds.No wind34%29.59 "Hg2 mi
6:30 AM77 °FScattered clouds.No wind32%29.59 "Hg2 mi
6:00 AM77 °FPassing clouds.No wind34%29.56 "Hg2 mi
5:30 AM79 °FHaze.No wind34%29.56 "Hg2 mi
4:30 AM79 °FHaze.No wind34%29.56 "Hg2 mi
3:30 AM79 °FHaze.No wind37%29.53 "Hg2 mi
2:30 AM81 °FHaze.No wind30%29.53 "Hg2 mi
1:30 AM81 °FHaze.No wind32%29.53 "Hg2 mi
12:30 AM86 °FHaze.No wind27%29.56 "Hg2 mi
11:30 PM
Sun, May 1
88 °FHaze.No wind24%29.56 "Hg2 mi
10:30 PM90 °FHaze.No wind22%29.59 "Hg2 mi
9:30 PM90 °FHaze.No wind24%29.56 "Hg2 mi
8:30 PM93 °FHaze.No wind19%29.56 "Hg2 mi
8:00 PM97 °FHaze.2 mph17%29.53 "Hg2 mi
7:30 PM99 °FHaze.3 mph15%29.53 "Hg2 mi
7:00 PM102 °FHaze.5 mph13%29.53 "Hg2 mi
6:30 PM106 °FDuststorm.7 mph12%29.53 "Hg2 mi
6:00 PM108 °FDuststorm.9 mph11%29.50 "Hg2 mi
5:30 PM109 °FDuststorm.9 mph10%29.50 "Hg2 mi
5:00 PM111 °FDuststorm.12 mph9%29.50 "Hg2 mi
4:00 PM111 °FDuststorm.12 mph9%29.53 "Hg2 mi
3:00 PM109 °FDuststorm.12 mph10%29.56 "Hg2 mi
2:00 PM109 °FHaze.8 mph13%29.59 "Hg2 mi
1:30 PM108 °FHaze.12 mph14%29.62 "Hg2 mi
12:30 PM106 °FHaze.9 mph13%29.62 "Hg2 mi
12:00 PM106 °FHaze.9 mph13%29.65 "Hg2 mi
Weather by CustomWeather, © 2016

See weather overviewHow to use our weather pages